DMSP 5D-2 F13 DEB

Satellite information

Favourite Embed

Satellite Type and Status

DEBRISIN ORBIT

Key statistics

Satellite DMSP 5D-2 F13 DEB at a glance.

Uptime

11223

Days in orbit

Revolutions

≈ 14.4

Per day

Orbit

SSO

Sun Synchronous Orbit

Inclination

98.7

Latest

Satellite identification and parameters

Extended collection of information and parameters for DMSP 5D-2 F13 DEB.

Object identification

Identified? True

Debris? True

Object name: DMSP 5D-2 F13 DEB

International designator: 1995-015JT

Object number (NORAD): 42325

Object ID (CCSDS): 42325

Country: UNITED STATES OF AMERICA (US)

Current information (Y/N): Y

RCS size: SMALL

Orbital parameters

Period: 99.942 minutes

Inclination: 98.7245 deg

SMA: 7133.855 km

Apoapsis: 762.684 km

Periapsis: 748.757 km

RAAN: 25.7803 deg

Eccentricy: 0.00097609

Argument of periapsis: 331.3964 deg

Mean anomaly: 28.6687 deg

Mean motion: 14.40841889 rev/day

Mean motion (dot): 0.00008977 rev/day2

B* drag term: 0.0028112656 1/REarth

Two-line elements (TLE)

Creation date: Dec. 14, 2025, 3:07 a.m.

Reference frame: TEME

Reference center: EARTH

Epoch: Dec. 13, 2025, 1:27 p.m. UTC

TLE line 0: 0 DMSP 5D-2 F13 DEB

TLE line 1: 1 42325U 95015JT 25347.56056793 .00008977 00000-0 28113-2 0 9996

TLE line 2: 2 42325 98.7245 25.7803 0009761 331.3964 28.6687 14.40841889526018

Live tracking on map

Real-time ground track for satellite DMSP 5D-2 F13 DEB.

In-orbit conjunctions

A list of the most updated potential collisions computed for object DMSP 5D-2 F13 DEB.

Target Orbit TCA Probability of collision Miss distance Type
COSMOS 2251 DEB LEO 2025-05-19 02:16:07 0.0001942254 190.0 (m) DEBRIS
SL-8 R/B LEO 2025-04-04 16:34:04 0.0001915256 824.0 (m) ROCKET BODY
CZ-6A DEB LEO 2024-11-20 02:34:08 0.0002671985 553.0 (m) DEBRIS
COSMOS 1125 LEO 2024-11-09 20:03:42 0.0001912014 520.0 (m) PAYLOAD

Associated space launch

Military meteorological satellite

DMSP 5D-2 F13 DEB was lifted into orbit during the mission ‘Atlas E | DMSP-5D2 F13’, on board a Atlas E space rocket.

The launch took place on March 24, 1995, 2:05 p.m. from Space Launch Complex 3W.

For more information about the launch, click the button.

Launch to space Atlas E | DMSP-5D2 F13
Atlas E | DMSP-5D2 F13

Agency: N/A

Status: Launch Successful

Launch date: March 24, 1995, 2:05 p.m. UTC

Rocket: Atlas E

Launch pad: Space Launch Complex 3W

Location: Vandenberg SFB, CA, USA

...

Latest news about this satellite

There are no fresh news available about this satellite. Check back as we update our databases every day.


Newsletter sign-up

Weekly statistics, charts and insights to help you stay on top of the space industry.